Track STARLINK-1933 now! 10-day predictions STARLINK-1933 is classified as:
1 46791U 20074BE 21055.91668981 -.00019247 00000-0 -12765-2 0 9999 2 46791 53.0560 296.1801 0002637 83.0656 262.8189 15.06402163 1859